[[{"header":{"parameterUnit":"m.s-1","parameterCategory":2,"la1":30.2991,"la2":30.254,"lo1":-89.0895,"lo2":-89.0444,"dy":0.0017,"dx":0.0017,"nx":28,"ny":28,"refTime":"2025-09-04T21:00:00:Z","depth":"0","parameterNumber":2,"parameterNumberName":"U-component_of_CURRENTS"},"data":[0,0,0,0,0,0,0,0,0,0,0,0,0,0,0,0,0,0,0,0,0,0,0,0,0,0,0,0,0,0,0,0,0,0,0,0,0,0,0,0,0,0,0,0,0,0,0,0,0,0,0,0,0,0,0,0,0,0,0.2543,0.2544,0,0.2588,0.2588,0.2588,0.2578,0.2577,0.2577,0.2576,0.2555,0.2555,0.2555,0,0,0,0,0,0,0,0,0,0,0,0,0,0.2444,0.2445,0.2543,0.2544,0.2545,0.2588,0.2588,0.2588,0.2578,0.2577,0.2576,0.2576,0.2556,0.2555,0.2555,0,0,0,0,0,0,0,0,0,0,0,0,0,0.2484,0.2446,0.2543,0.2547,0.2548,0.2588,0.2588,0.2588,0.2578,0.2577,0.2576,0.2576,0.2556,0.2555,0.2555,0.2571,0,0,0.2555,0.2555,0,0,0,0,0,0,0,0,0.2482,0.2487,0.2546,0.2547,0.2549,0.2579,0.2546,0.258,0.2578,0.2563,0.2576,0.2575,0.256,0.256,0.2566,0.257,0.2569,0.2555,0.2555,0.2555,0.2555,0,0,0,0,0,0,0,0.2479,0.2485,0.2557,0.2547,0.2549,0.2546,0.255,0.2552,0.2562,0.2564,0.2564,0.2575,0.256,0.2566,0.2565,0.2569,0.2555,0.2555,0.2555,0.2555,0.2575,0.2576,0,0,0,0,0,0,0.2482,0.2483,0.2556,0.2559,0.2517,0.2548,0.2553,0.2567,0.2563,0.2563,0.2576,0.2575,0.2567,0.2565,0.2564,0.2597,0.2555,0.2555,0.2555,0.2575,0.2575,0.2576,0,0,0,0,0,0,0.248,0.2488,0.2554,0.2524,0.2533,0.2551,0.2567,0.2569,0.2579,0.2573,0.2571,0.2585,0.2566,0.2564,0.2573,0.2595,0.2555,0.2555,0.2574,0.2575,0.2576,0.2652,0,0,0,0,0,0,0.2477,0.2487,0.2497,0.2525,0.2535,0.2589,0.2568,0.257,0.2588,0.2587,0.2581,0.2578,0.2565,0.2573,0.2573,0.2594,0.2555,0.2573,0.2574,0.2575,0.2649,0.2655,0.2661,0,0,0,0,0,0.2473,0.2495,0.2497,0.2506,0.2548,0.2591,0.2596,0.2603,0.259,0.2605,0.2595,0.2578,0.2579,0.2574,0.2573,0.2595,0.2573,0.2574,0.2575,0.2646,0.2654,0.2661,0,0,0,0,0,0,0.2464,0.2497,0.25,0.2532,0.2564,0.259,0.2606,0.2609,0.2615,0.2609,0.2592,0.2589,0.2606,0.2587,0.2581,0.2602,0.2571,0.2572,0.2625,0.2632,0.2638,0.2664,0.2555,0,0,0,0,0,0.2467,0.2486,0.2522,0.2549,0.2565,0.2585,0.2601,0.261,0.2622,0.2624,0.262,0.261,0.2612,0.2611,0.261,0.2624,0.2703,0.2633,0.2639,0.2645,0.2664,0.2865,0.2894,0.258,0.258,0.258,0,0,0.2473,0.2493,0.2505,0.2548,0.2568,0.26,0.2592,0.2626,0.2647,0.262,0.2641,0.2637,0.2621,0.264,0.2644,0.2625,0.2767,0.2647,0.2652,0.2668,0.287,0.2902,0.293,0.2581,0.2581,0.2581,0,0,0.2497,0.2512,0.2536,0.2562,0.26,0.2616,0.2628,0.2661,0.2669,0.2696,0.2678,0.2693,0.269,0.2693,0.269,0.2729,0.2799,0.2717,0.2769,0.2964,0.2994,0.3021,0.3137,0.3174,0.2716,0.2716,0.2716,0,0.2505,0.254,0.2553,0.2583,0.2615,0.2624,0.2667,0.2677,0.2706,0.2742,0.2709,0.2762,0.2721,0.2778,0.2764,0.2747,0.2859,0.2745,0.2981,0.3009,0.3036,0.3148,0.3188,0.272,0.272,0.2719,0.2719,0,0.2546,0.2575,0.2595,0.2633,0.2667,0.2707,0.2732,0.2761,0.2771,0.2802,0.2871,0.2846,0.2897,0.2861,0.2808,0.2953,0.2971,0.2979,0.2978,0.3074,0.3183,0.3224,0.2725,0.2724,0.2723,0.2722,0,0,0.2581,0.2616,0.2627,0.2662,0.2702,0.2747,0.2782,0.2855,0.2926,0.2936,0.3054,0.3004,0.3036,0.3033,0.2999,0.3102,0.3325,0.311,0.3118,0.3249,0.3749,0.3632,0.3665,0.342,0.3427,0.3434,0.3743,0,0.2619,0.268,0.269,0.2767,0.2812,0.2838,0.2888,0.2951,0.3005,0.3116,0.3125,0.3209,0.3092,0.3139,0.3231,0.3311,0.3441,0.3239,0.3613,0.3622,0.3532,0.3711,0.3565,0.382,0.3782,0.3789,0.3794,0,0.2667,0.2708,0.2779,0.2864,0.2891,0.2938,0.3069,0.3117,0.3245,0.3299,0.3399,0.3434,0.3535,0.3453,0.3694,0.3592,0.3683,0.3733,0.3749,0.3648,0.3583,0.372,0.3895,0.3759,0.3856,0.3851,0.3847,0,0.2709,0.2781,0.2844,0.2869,0.2955,0.3015,0.3075,0.3192,0.3254,0.3451,0.3537,0.3697,0.3772,0.395,0.3966,0.3911,0.4252,0.421,0.4196,0.4186,0.4132,0.4103,0.4242,0.4463,0.4462,0.4461,0.446,0,0.2758,0.2816,0.2874,0.2915,0.302,0.308,0.3208,0.3292,0.3433,0.3522,0.3648,0.3741,0.3915,0.407,0.4129,0.4268,0.4414,0.4257,0.4296,0.4141,0.4112,0.404,0.3955,0.4473,0.447,0.4468,0.4466,0,0.2794,0.2822,0.2904,0.3003,0.3035,0.3123,0.3234,0.3307,0.3465,0.3597,0.3665,0.3849,0.4047,0.418,0.4448,0.4445,0.4486,0.4619,0.4364,0.4365,0.4183,0.4105,0.4172,0.405,0.4716,0.4715,0.4715,0,0.2808,0.285,0.2948,0.2965,0.3007,0.3116,0.3154,0.3307,0.3369,0.3609,0.3657,0.3906,0.4011,0.4347,0.4452,0.4645,0.4473,0.459,0.4434,0.4198,0.4146,0.396,0.3837,0.4397,0.4394,0.4392,0.439,0,0.2824,0.2856,0.2899,0.2946,0.2988,0.3037,0.3117,0.3172,0.3331,0.3454,0.3598,0.3734,0.4036,0.4164,0.4404,0.448,0.4349,0.4541,0.4434,0.4026,0.371,0.3598,0.4103,0.4368,0.437,0.4372,0.4373,0.4374,0.2799,0.2821,0.2848,0.2887,0.2917,0.292,0.2929,0.3006,0.3101,0.3244,0.3444,0.3602,0.3878,0.419,0.424,0.4227,0.4193,0.4138,0.4106,0.397,0.3715,0.4105,0.4306,0.4307,0.4309,0.431,0.4312,0,0.272,0.2731,0.2763,0.2785,0.2763,0.2818,0.2843,0.2826,0.2866,0.3066,0.3203,0.3454,0.3635,0.3828,0.3945,0.3829,0.368,0.3727,0.3468,0.3401,0.3915,0.3756,0.3678,0.3678,0.3678,0.3678,0.3679,0.3679,0.2664,0.2645,0.2664,0.2608,0.2609,0.2541,0.252,0.2528,0.263,0.2745,0.288,0.3089,0.3386,0.3625,0.3576,0.3497,0.321,0.3094,0.3063,0.3436,0.3471,0.3504,0.3336,0.3172,0.3171,0.2423,0.2418,0.2413]},{"header":{"parameterUnit":"m.s-1","parameterCategory":2,"la1":30.2991,"la2":30.254,"lo1":-89.0895,"lo2":-89.0444,"dy":0.0017,"dx":0.0017,"nx":28,"ny":28,"refTime":"2025-09-04T21:00:00:Z","depth":"0","parameterNumber":3,"parameterNumberName":"V-component_of_CURRENTS"},"data":[0,0,0,0,0,0,0,0,0,0,0,0,0,0,0,0,0,0,0,0,0,0,0,0,0,0,0,0,0,0,0,0,0,0,0,0,0,0,0,0,0,0,0,0,0,0,0,0,0,0,0,0,0,0,0,0,0,0,-0.0125,-0.0125,0,-0.0173,-0.0174,-0.0175,-0.0214,-0.0215,-0.0215,-0.0215,-0.0331,-0.0334,-0.0337,0,0,0,0,0,0,0,0,0,0,0,0,0,-0.0067,-0.0068,-0.0125,-0.0125,-0.0126,-0.0173,-0.0174,-0.0175,-0.0214,-0.0215,-0.0215,-0.0215,-0.033,-0.0333,-0.0337,0,0,0,0,0,0,0,0,0,0,0,0,0,-0.0103,-0.0068,-0.0125,-0.015,-0.0153,-0.0173,-0.0174,-0.0175,-0.0214,-0.0215,-0.0215,-0.0216,-0.0329,-0.0333,-0.0337,-0.0355,0,0,-0.035,-0.0352,0,0,0,0,0,0,0,0,-0.0101,-0.0105,-0.0146,-0.0148,-0.0151,-0.0187,-0.0196,-0.0238,-0.0214,-0.0193,-0.0215,-0.0216,-0.0288,-0.0295,-0.0305,-0.0361,-0.0366,-0.0351,-0.0353,-0.0355,-0.0356,0,0,0,0,0,0,0,-0.0098,-0.0103,-0.0146,-0.0146,-0.0149,-0.0159,-0.0165,-0.0204,-0.024,-0.0194,-0.0197,-0.02,-0.029,-0.0301,-0.0308,-0.0368,-0.0351,-0.0354,-0.0357,-0.0359,-0.047,-0.047,0,0,0,0,0,0,-0.0089,-0.0101,-0.0144,-0.0147,-0.0125,-0.016,-0.0166,-0.0176,-0.0238,-0.0247,-0.0199,-0.0201,-0.0293,-0.0303,-0.0312,-0.0342,-0.0355,-0.0359,-0.0361,-0.0469,-0.047,-0.047,0,0,0,0,0,0,-0.0088,-0.0093,-0.0142,-0.0123,-0.013,-0.016,-0.0171,-0.0177,-0.0186,-0.0241,-0.0251,-0.0202,-0.0294,-0.0306,-0.035,-0.0347,-0.0361,-0.0365,-0.0469,-0.0469,-0.047,-0.0398,0,0,0,0,0,0,-0.0086,-0.0092,-0.0092,-0.0123,-0.0131,-0.0147,-0.0171,-0.0178,-0.0186,-0.0189,-0.0246,-0.0257,-0.0295,-0.0343,-0.0354,-0.0353,-0.0368,-0.0468,-0.0469,-0.047,-0.04,-0.0396,-0.0393,0,0,0,0,0,-0.0084,-0.0073,-0.0092,-0.0097,-0.0132,-0.0146,-0.0151,-0.0174,-0.0186,-0.0185,-0.023,-0.0255,-0.0356,-0.0347,-0.036,-0.0359,-0.0468,-0.0469,-0.047,-0.0402,-0.0397,-0.0393,0,0,0,0,0,0,-0.0031,-0.0077,-0.0098,-0.0099,-0.012,-0.0152,-0.0147,-0.0168,-0.0201,-0.0205,-0.0261,-0.0275,-0.0312,-0.0348,-0.0337,-0.0396,-0.0416,-0.042,-0.036,-0.0357,-0.0353,-0.0274,-0.0372,0,0,0,0,0,-0.0025,-0.0038,-0.0076,-0.0074,-0.0084,-0.0117,-0.0124,-0.0142,-0.0175,-0.0189,-0.0233,-0.0283,-0.0326,-0.035,-0.0393,-0.0424,-0.038,-0.0434,-0.043,-0.0427,-0.0373,-0.0306,-0.0289,-0.0473,-0.0473,-0.0473,0,0,-0.0,-0.0027,-0.0033,-0.0065,-0.0083,-0.0086,-0.0122,-0.0126,-0.0129,-0.0198,-0.0218,-0.0271,-0.0332,-0.0366,-0.0386,-0.0396,-0.0356,-0.0428,-0.0424,-0.0371,-0.0305,-0.0286,-0.0269,-0.0474,-0.0474,-0.0474,0,0,0.0046,0.0014,0.0018,-0.0002,-0.0029,-0.0053,-0.0052,-0.009,-0.0106,-0.0138,-0.0188,-0.0227,-0.0303,-0.0333,-0.0362,-0.0363,-0.0339,-0.0396,-0.0312,-0.025,-0.0232,-0.0216,-0.014,-0.0117,-0.0394,-0.0394,-0.0394,0,0.0079,0.0076,0.0022,0.0023,0.0026,-0.0034,-0.0013,-0.0046,-0.0093,-0.0078,-0.0136,-0.0192,-0.0277,-0.0271,-0.0296,-0.035,-0.0296,-0.0323,-0.0238,-0.0221,-0.0205,-0.0131,-0.0107,-0.0391,-0.0391,-0.0391,-0.0392,0,0.0122,0.0124,0.0131,0.0104,0.0095,0.0106,0.0057,0.0049,0.0013,-0.0004,-0.0006,-0.0105,-0.0111,-0.0183,-0.0253,-0.0195,-0.0186,-0.0236,-0.0232,-0.0181,-0.0109,-0.0085,-0.0386,-0.0387,-0.0388,-0.0389,0,0,0.0212,0.0168,0.0176,0.0205,0.0146,0.017,0.015,0.0161,0.0232,0.0133,0.023,0.0076,0.0066,0.0035,-0.0049,-0.0041,0.0055,-0.0091,-0.0089,0.0016,0.0234,0.0133,0.0149,0.0034,0.0039,0.0042,0.0242,0,0.0277,0.0313,0.026,0.0326,0.0358,0.0302,0.0325,0.0322,0.0314,0.0385,0.029,0.0334,0.0138,0.0168,0.0136,0.0103,0.0124,0.0009,0.0144,0.015,0.0078,0.0174,0.0089,0.0251,0.0265,0.0269,0.0272,0,0.036,0.0377,0.0441,0.0496,0.0511,0.0541,0.0634,0.0644,0.0682,0.069,0.0694,0.065,0.064,0.0477,0.0465,0.0413,0.0341,0.0284,0.029,0.0202,0.0093,0.0199,0.0294,0.0068,0.0309,0.0306,0.0303,0,0.0512,0.0531,0.0603,0.061,0.0636,0.0694,0.0723,0.0765,0.0837,0.0929,0.1021,0.0985,0.1024,0.0929,0.073,0.0651,0.0738,0.0622,0.0471,0.0464,0.0423,0.0404,0.0347,0.065,0.065,0.0649,0.0648,0,0.0638,0.0714,0.0699,0.0755,0.0902,0.0869,0.1048,0.1073,0.117,0.1304,0.1222,0.1326,0.1141,0.1117,0.0914,0.078,0.0891,0.0545,0.0524,0.0438,0.0418,0.024,0.0121,0.0657,0.0655,0.0653,0.0652,0,0.0829,0.0794,0.0903,0.0949,0.0982,0.1108,0.1229,0.1352,0.143,0.1615,0.1663,0.1657,0.1615,0.1404,0.1285,0.1044,0.078,0.082,0.0726,0.0686,0.0287,0.0176,0.0176,0.0094,0.0741,0.074,0.0739,0,0.0938,0.1,0.1068,0.1127,0.1162,0.1312,0.1408,0.1487,0.1602,0.1793,0.1893,0.1929,0.1915,0.171,0.1316,0.1035,0.0792,0.077,0.0558,0.0305,0.0168,0.0085,0.0011,0.055,0.0548,0.0546,0.0544,0,0.114,0.1145,0.1205,0.1321,0.1426,0.1559,0.1696,0.1823,0.1927,0.208,0.2238,0.2267,0.2031,0.1695,0.1282,0.103,0.0591,0.0718,0.0504,0.0071,-0.0059,-0.0163,0.0384,0.0527,0.0528,0.053,0.0531,0.0531,0.1274,0.1345,0.138,0.1503,0.1607,0.1752,0.1881,0.2013,0.2209,0.2399,0.2436,0.2478,0.2003,0.1404,0.1071,0.039,0.0442,0.0155,0.007,0.0034,-0.0147,0.0352,0.0408,0.0409,0.041,0.0411,0.0412,0,0.1388,0.143,0.1547,0.1658,0.1772,0.1819,0.2015,0.2131,0.2328,0.2484,0.2598,0.2334,0.1744,0.1146,0.0249,-0.0183,-0.0332,-0.04,-0.0537,-0.056,-0.0064,-0.0188,-0.0318,-0.0318,-0.0318,-0.0318,-0.0318,-0.0317,0.1435,0.1525,0.1565,0.1748,0.1838,0.1996,0.2101,0.2279,0.2403,0.252,0.2491,0.2456,0.1931,0.0464,-0.0538,-0.0741,-0.1009,-0.1079,-0.1145,-0.0865,-0.0821,-0.0779,-0.0925,-0.1207,-0.1209,-0.1633,-0.1638,-0.1641]}],[{"header":{"parameterUnit":"m.s-1","parameterCategory":2,"la1":30.2991,"la2":30.254,"lo1":-89.0895,"lo2":-89.0444,"dy":0.0017,"dx":0.0017,"nx":28,"ny":28,"refTime":"2025-09-04T21:00:00:Z","depth":"2","parameterNumber":2,"parameterNumberName":"U-component_of_CURRENTS"},"data":[0,0,0,0,0,0,0,0,0,0,0,0,0,0,0,0,0,0,0,0,0,0,0,0,0,0,0,0,0,0,0,0,0,0,0,0,0,0,0,0,0,0,0,0,0,0,0,0,0,0,0,0,0,0,0,0,0,0,0.2359,0.2361,0,0.2372,0.2371,0.237,0.2375,0.2377,0.2378,0.238,0.2507,0.2509,0.2511,0,0,0,0,0,0,0,0,0,0,0,0,0,0.2285,0.2285,0.2359,0.2361,0.2362,0.2372,0.2371,0.2369,0.2375,0.2377,0.2379,0.238,0.2507,0.2509,0.2511,0,0,0,0,0,0,0,0,0,0,0,0,0,0.2293,0.2285,0.2359,0.2379,0.2382,0.2373,0.2371,0.2369,0.2374,0.2377,0.2379,0.2381,0.2506,0.2509,0.2512,0.2482,0,0,0.252,0.2522,0,0,0,0,0,0,0,0,0.2293,0.2293,0.2374,0.2378,0.2382,0.239,0.2393,0.2419,0.2374,0.2359,0.238,0.2382,0.2488,0.2493,0.2463,0.2488,0.2494,0.2521,0.2523,0.2524,0.2525,0,0,0,0,0,0,0,0.2292,0.2293,0.2346,0.2377,0.2381,0.2371,0.2373,0.2395,0.2399,0.236,0.2365,0.2394,0.2489,0.246,0.2467,0.2496,0.2521,0.2523,0.2525,0.2526,0.2617,0.2617,0,0,0,0,0,0,0.2326,0.2292,0.2346,0.2349,0.2362,0.2372,0.2373,0.237,0.2396,0.2407,0.2392,0.2394,0.2454,0.2464,0.2472,0.2574,0.2524,0.2526,0.2528,0.2616,0.2617,0.2617,0,0,0,0,0,0,0.2323,0.2329,0.2346,0.2337,0.2341,0.2373,0.2368,0.237,0.2377,0.2422,0.2431,0.2404,0.2456,0.2468,0.255,0.2575,0.2528,0.253,0.2615,0.2616,0.2617,0.2693,0,0,0,0,0,0,0.232,0.2326,0.2351,0.2338,0.2343,0.2372,0.2368,0.2369,0.2398,0.2401,0.2436,0.2447,0.2459,0.2546,0.2553,0.2578,0.2533,0.2614,0.2616,0.2617,0.2689,0.2696,0.2702,0,0,0,0,0,0.2317,0.2341,0.2351,0.236,0.2369,0.2375,0.2374,0.2393,0.2397,0.2404,0.245,0.2448,0.2557,0.255,0.2558,0.2584,0.2614,0.2615,0.2617,0.2686,0.2695,0.2702,0,0,0,0,0,0,0.2314,0.2345,0.2355,0.2386,0.24,0.2384,0.2399,0.2406,0.2433,0.2446,0.2474,0.249,0.2566,0.256,0.2551,0.2609,0.2577,0.258,0.2627,0.2635,0.2641,0.2651,0.2535,0,0,0,0,0,0.2328,0.2371,0.2374,0.2411,0.2402,0.2398,0.2411,0.2419,0.2442,0.2453,0.2498,0.253,0.2564,0.2594,0.2622,0.2663,0.2691,0.2676,0.2682,0.2688,0.2699,0.2795,0.2813,0.2622,0.2622,0.2622,0,0,0.2355,0.2374,0.2406,0.2419,0.241,0.2415,0.2406,0.2423,0.2465,0.2467,0.2548,0.2566,0.2582,0.2636,0.2665,0.2645,0.2752,0.269,0.2695,0.2703,0.2799,0.2818,0.2835,0.2623,0.2623,0.2623,0,0,0.2386,0.2413,0.243,0.2441,0.2456,0.2455,0.2468,0.2471,0.2504,0.2575,0.2586,0.2635,0.2689,0.2707,0.2718,0.2772,0.2788,0.2763,0.2806,0.29,0.2918,0.2933,0.298,0.3,0.2761,0.2761,0.2761,0,0.2395,0.243,0.244,0.244,0.2471,0.2475,0.2484,0.2511,0.2567,0.2617,0.2625,0.2717,0.2724,0.2789,0.2792,0.2791,0.2833,0.2781,0.2913,0.2929,0.2944,0.2989,0.3009,0.2765,0.2764,0.2764,0.2764,0,0.2431,0.2458,0.2461,0.2477,0.2503,0.2522,0.2555,0.2602,0.2651,0.2699,0.2803,0.2823,0.2887,0.2869,0.2845,0.2933,0.2924,0.292,0.2903,0.2969,0.301,0.303,0.277,0.2769,0.2768,0.2767,0,0,0.2428,0.2473,0.248,0.2499,0.253,0.255,0.2619,0.2687,0.2765,0.2834,0.2961,0.297,0.3002,0.3013,0.2995,0.3035,0.3149,0.3014,0.3017,0.3075,0.3341,0.3175,0.318,0.3185,0.3189,0.3192,0.3323,0,0.2438,0.246,0.2499,0.2554,0.2552,0.2604,0.2674,0.2755,0.2847,0.2983,0.3031,0.3141,0.3056,0.3102,0.3136,0.3163,0.3208,0.3112,0.3255,0.3258,0.3116,0.3201,0.2971,0.3056,0.3343,0.3346,0.3349,0,0.2449,0.2467,0.2514,0.2584,0.259,0.2666,0.2794,0.2852,0.3017,0.3101,0.3219,0.3288,0.3373,0.3306,0.3398,0.335,0.3351,0.3348,0.3354,0.3189,0.313,0.3037,0.3082,0.3383,0.338,0.3377,0.3375,0,0.2458,0.2484,0.2542,0.2569,0.2642,0.2725,0.2785,0.2917,0.3,0.3217,0.3317,0.3451,0.3536,0.3586,0.354,0.3518,0.3629,0.3618,0.3466,0.3454,0.3277,0.3241,0.3703,0.3703,0.3703,0.3702,0.3702,0,0.2459,0.2495,0.257,0.2629,0.2711,0.2754,0.2902,0.2983,0.3148,0.325,0.3393,0.3497,0.3611,0.3671,0.3641,0.3593,0.3725,0.3493,0.3491,0.3289,0.3254,0.3546,0.3526,0.3707,0.3706,0.3705,0.3704,0,0.2434,0.2489,0.2573,0.2696,0.2736,0.2809,0.2968,0.3035,0.319,0.3343,0.3424,0.3599,0.3663,0.3699,0.3776,0.3691,0.3683,0.3622,0.334,0.33,0.3433,0.3415,0.3546,0.3542,0.3538,0.3535,0.3532,0,0.243,0.2456,0.2635,0.2677,0.2754,0.286,0.2903,0.3068,0.3134,0.3353,0.3404,0.3568,0.3583,0.3629,0.3582,0.3546,0.3595,0.3275,0.3177,0.3438,0.3425,0.3413,0.3401,0.2984,0.2977,0.2972,0.2967,0,0.239,0.248,0.255,0.2637,0.2734,0.2796,0.2897,0.2969,0.3107,0.3193,0.3276,0.3328,0.3419,0.3288,0.3249,0.3191,0.3272,0.3154,0.3569,0.3023,0.291,0.2895,0.2902,0.2917,0.2922,0.2925,0.2928,0.293,0.2374,0.2397,0.2493,0.2552,0.2629,0.267,0.271,0.2756,0.2806,0.2851,0.3016,0.2975,0.3053,0.2877,0.2789,0.2764,0.2972,0.2843,0.2862,0.2887,0.2762,0.2644,0.2578,0.2581,0.2583,0.2586,0.2588,0,0.2273,0.2294,0.2354,0.2447,0.2449,0.255,0.261,0.2578,0.2533,0.2574,0.2579,0.2377,0.2305,0.2401,0.2296,0.2279,0.2282,0.2186,0.2187,0.2239,0.2285,0.213,0.1779,0.1776,0.1773,0.177,0,0,0.2218,0.221,0.2229,0.2217,0.2269,0.2252,0.2269,0.2197,0.2204,0.2048,0.1999,0.2151,0.2304,0.199,0.1973,0.1865,0.2032,0.1795,0.2452,0.2506,0.2548,0.2679,0.2499,0,0,0,0,0]},{"header":{"parameterUnit":"m.s-1","parameterCategory":2,"la1":30.2991,"la2":30.254,"lo1":-89.0895,"lo2":-89.0444,"dy":0.0017,"dx":0.0017,"nx":28,"ny":28,"refTime":"2025-09-04T21:00:00:Z","depth":"2","parameterNumber":3,"parameterNumberName":"V-component_of_CURRENTS"},"data":[0,0,0,0,0,0,0,0,0,0,0,0,0,0,0,0,0,0,0,0,0,0,0,0,0,0,0,0,0,0,0,0,0,0,0,0,0,0,0,0,0,0,0,0,0,0,0,0,0,0,0,0,0,0,0,0,0,0,-0.0224,-0.0224,0,-0.0235,-0.0235,-0.0235,-0.0272,-0.0273,-0.0274,-0.0276,-0.0441,-0.0444,-0.0447,0,0,0,0,0,0,0,0,0,0,0,0,0,-0.0209,-0.0209,-0.0224,-0.0224,-0.0225,-0.0235,-0.0235,-0.0235,-0.0272,-0.0273,-0.0275,-0.0276,-0.044,-0.0444,-0.0448,0,0,0,0,0,0,0,0,0,0,0,0,0,-0.0214,-0.0209,-0.0224,-0.0247,-0.025,-0.0235,-0.0235,-0.0235,-0.0272,-0.0273,-0.0275,-0.0277,-0.0439,-0.0443,-0.0448,-0.0444,0,0,-0.0463,-0.0466,0,0,0,0,0,0,0,0,-0.0214,-0.0214,-0.0243,-0.0246,-0.0248,-0.0257,-0.0291,-0.0314,-0.0271,-0.0259,-0.0276,-0.0278,-0.0395,-0.0403,-0.0394,-0.0452,-0.0459,-0.0464,-0.0467,-0.0469,-0.047,0,0,0,0,0,0,0,-0.0213,-0.0214,-0.0225,-0.0244,-0.0247,-0.0249,-0.0251,-0.0294,-0.0317,-0.0261,-0.0264,-0.0271,-0.0397,-0.0389,-0.0399,-0.0461,-0.0464,-0.0468,-0.0471,-0.0473,-0.059,-0.0591,0,0,0,0,0,0,-0.0219,-0.0213,-0.0224,-0.0225,-0.0239,-0.0248,-0.0251,-0.025,-0.0314,-0.0325,-0.0269,-0.0272,-0.038,-0.0393,-0.0405,-0.0453,-0.0469,-0.0474,-0.0476,-0.059,-0.059,-0.0591,0,0,0,0,0,0,-0.0218,-0.0219,-0.0224,-0.0223,-0.0224,-0.0247,-0.0245,-0.0249,-0.0252,-0.0319,-0.0333,-0.027,-0.0382,-0.0398,-0.0465,-0.0459,-0.0476,-0.048,-0.059,-0.059,-0.059,-0.0518,0,0,0,0,0,0,-0.0217,-0.0218,-0.0219,-0.0223,-0.0225,-0.0219,-0.0244,-0.0248,-0.0254,-0.0259,-0.0324,-0.0341,-0.0384,-0.0457,-0.047,-0.0466,-0.0484,-0.059,-0.059,-0.059,-0.0521,-0.0516,-0.0512,0,0,0,0,0,-0.0217,-0.0203,-0.0218,-0.022,-0.0224,-0.0219,-0.0219,-0.0239,-0.0253,-0.0248,-0.0308,-0.0339,-0.0468,-0.0462,-0.0477,-0.0473,-0.059,-0.059,-0.059,-0.0522,-0.0517,-0.0512,0,0,0,0,0,0,-0.0194,-0.0206,-0.0223,-0.0214,-0.0222,-0.0227,-0.0219,-0.0235,-0.0269,-0.0281,-0.0347,-0.0367,-0.042,-0.0459,-0.045,-0.0509,-0.0531,-0.0534,-0.0474,-0.047,-0.0466,-0.0419,-0.0488,0,0,0,0,0,-0.019,-0.0184,-0.02,-0.0193,-0.0192,-0.0206,-0.0206,-0.022,-0.0251,-0.0265,-0.0321,-0.0379,-0.0426,-0.046,-0.0508,-0.0542,-0.0563,-0.0549,-0.0545,-0.0541,-0.0513,-0.0536,-0.0531,-0.0592,-0.0592,-0.0592,0,0,-0.0177,-0.0185,-0.0181,-0.0188,-0.0189,-0.018,-0.0209,-0.0203,-0.0207,-0.0281,-0.0314,-0.0369,-0.0433,-0.0473,-0.0499,-0.0509,-0.0541,-0.0541,-0.0537,-0.0511,-0.0536,-0.053,-0.0524,-0.0592,-0.0592,-0.0592,0,0,-0.0142,-0.0154,-0.0137,-0.014,-0.0149,-0.0157,-0.0158,-0.0174,-0.0193,-0.023,-0.0285,-0.0333,-0.0412,-0.0448,-0.0478,-0.0478,-0.0518,-0.0501,-0.0442,-0.0465,-0.046,-0.0455,-0.0494,-0.0493,-0.0498,-0.0498,-0.0498,0,-0.0129,-0.0113,-0.013,-0.0116,-0.0114,-0.0146,-0.0126,-0.0143,-0.0188,-0.0203,-0.0239,-0.0332,-0.0391,-0.0424,-0.0423,-0.0465,-0.049,-0.0455,-0.0457,-0.0452,-0.0449,-0.049,-0.049,-0.0495,-0.0495,-0.0496,-0.0496,0,-0.0088,-0.0074,-0.0058,-0.0056,-0.0055,-0.0041,-0.0069,-0.0084,-0.0118,-0.0144,-0.0193,-0.0269,-0.0316,-0.0348,-0.0386,-0.0389,-0.0421,-0.0447,-0.0461,-0.0437,-0.0484,-0.0485,-0.049,-0.0491,-0.0492,-0.0493,0,0,-0.0053,-0.0034,-0.0026,-0.0018,-0.0023,-0.0017,-0.0019,-0.003,-0.0033,-0.0091,-0.0083,-0.0175,-0.0207,-0.024,-0.0299,-0.0319,-0.0327,-0.036,-0.0363,-0.0383,-0.0387,-0.0406,-0.041,-0.0352,-0.0352,-0.0351,-0.0437,0,-0.0015,0.0018,0.0025,0.006,0.007,0.0054,0.0056,0.0036,0.0002,-0.0003,-0.0064,-0.0083,-0.017,-0.0177,-0.0217,-0.0287,-0.0323,-0.0302,-0.0419,-0.0422,-0.0429,-0.0409,-0.037,-0.0441,-0.0438,-0.0438,-0.0439,0,0.002,0.0036,0.0074,0.0101,0.011,0.0134,0.0134,0.0128,0.0112,0.0095,0.0068,0.0029,-0.0001,-0.0065,-0.0189,-0.0171,-0.0264,-0.0331,-0.0337,-0.037,-0.0442,-0.0462,-0.0444,-0.0441,-0.0441,-0.0441,-0.044,0,0.0033,0.0074,0.0102,0.011,0.0132,0.0162,0.0179,0.0161,0.0169,0.0183,0.02,0.0137,0.0136,0.0016,-0.0147,-0.015,-0.0284,-0.0311,-0.0429,-0.0433,-0.0427,-0.0431,-0.0389,-0.0389,-0.0389,-0.0388,-0.0388,0,0.0055,0.0083,0.0115,0.0139,0.0184,0.0187,0.0243,0.0242,0.0269,0.0289,0.0258,0.026,0.0164,0.0064,-0.0098,-0.0275,-0.0262,-0.0401,-0.0444,-0.0406,-0.0407,-0.0425,-0.0428,-0.0392,-0.0391,-0.039,-0.039,0,0.0049,0.0074,0.0121,0.0174,0.0197,0.0227,0.0318,0.0335,0.0355,0.0395,0.0423,0.0389,0.0288,0.0127,-0.0045,-0.02,-0.0374,-0.0453,-0.0407,-0.0442,-0.0516,-0.0515,-0.0544,-0.0545,-0.0546,-0.0547,-0.0547,0,0.0045,0.0056,0.015,0.0182,0.022,0.0281,0.0319,0.0379,0.0407,0.0436,0.0452,0.0425,0.0394,0.0131,-0.01,-0.0346,-0.0399,-0.0494,-0.048,-0.0486,-0.0526,-0.0523,-0.0521,-0.0464,-0.0463,-0.0463,-0.0463,0,0.0015,0.0055,0.0089,0.0176,0.0242,0.0316,0.0389,0.0445,0.049,0.0565,0.0601,0.0607,0.0394,0.0215,-0.0101,-0.0289,-0.0437,-0.0499,-0.0514,-0.0424,-0.0416,-0.0453,-0.0453,-0.0463,-0.0463,-0.0463,-0.0463,-0.0463,-0.0012,0.0009,0.007,0.0154,0.0227,0.0325,0.0432,0.0516,0.0634,0.0745,0.0705,0.0749,0.0502,0.0176,-0.0131,-0.0423,-0.0421,-0.0524,-0.0522,-0.0521,-0.049,-0.0482,-0.0537,-0.0538,-0.0538,-0.0539,-0.0539,0,-0.0037,-0.0015,0.004,0.0164,0.0261,0.0321,0.045,0.0583,0.0771,0.0841,0.0938,0.075,0.0535,0.0244,-0.0172,-0.0447,-0.0462,-0.0529,-0.0483,-0.0482,-0.0482,-0.0447,-0.0485,-0.0486,-0.0486,-0.0486,0,0,-0.0065,-0.0024,0.0024,0.0171,0.0272,0.0448,0.0558,0.0753,0.0875,0.1004,0.1054,0.1023,0.0659,0.0374,0.0001,-0.0229,-0.0291,-0.0279,-0.0297,-0.0199,-0.0195,-0.046,-0.0404,0,0,0,0,0]}],[{"header":{"parameterUnit":"m.s-1","parameterCategory":2,"la1":30.2991,"la2":30.254,"lo1":-89.0895,"lo2":-89.0444,"dy":0.0017,"dx":0.0017,"nx":28,"ny":28,"refTime":"2025-09-04T21:00:00:Z","depth":"4","parameterNumber":2,"parameterNumberName":"U-component_of_CURRENTS"},"data":[0,0,0,0,0,0,0,0,0,0,0,0,0,0,0,0,0,0,0,0,0,0,0,0,0,0,0,0,0,0,0,0,0,0,0,0,0,0,0,0,0,0,0,0,0,0,0,0,0,0,0,0,0,0,0,0,0,0,0.1123,0.1124,0,0.1191,0.1191,0.1192,0.123,0.123,0.1231,0.1231,0.1292,0.1294,0.1295,0,0,0,0,0,0,0,0,0,0,0,0,0,0.1046,0.1047,0.1123,0.1124,0.1125,0.1191,0.1191,0.1192,0.123,0.123,0.1231,0.1231,0.1292,0.1294,0.1295,0,0,0,0,0,0,0,0,0,0,0,0,0,0.1091,0.1047,0.1122,0.1153,0.1156,0.119,0.1191,0.1192,0.123,0.123,0.1231,0.1231,0.1291,0.1293,0.1295,0.1299,0,0,0.1302,0.1303,0,0,0,0,0,0,0,0,0.1088,0.1094,0.1147,0.1151,0.1155,0.1204,0.1187,0.1228,0.123,0.12,0.1231,0.1231,0.1263,0.1268,0.1277,0.1302,0.1305,0.1302,0.1303,0.1304,0.1305,0,0,0,0,0,0,0,0.1085,0.1091,0.1148,0.1148,0.1153,0.117,0.1177,0.1195,0.1227,0.1203,0.1206,0.1216,0.1265,0.1275,0.1278,0.1306,0.1302,0.1304,0.1305,0.1306,0.1415,0.1417,0,0,0,0,0,0,0.1079,0.1088,0.1145,0.115,0.1124,0.1171,0.1179,0.1186,0.1227,0.1234,0.1216,0.1218,0.1271,0.1276,0.1281,0.1352,0.1304,0.1306,0.1307,0.1414,0.1416,0.1417,0,0,0,0,0,0,0.1077,0.1084,0.1143,0.1122,0.1131,0.1172,0.1181,0.1187,0.123,0.1237,0.1244,0.1255,0.1271,0.1278,0.1312,0.1352,0.1307,0.1309,0.1412,0.1414,0.1417,0.1454,0,0,0,0,0,0,0.1075,0.1082,0.11,0.1122,0.1132,0.1179,0.1181,0.1188,0.1234,0.1238,0.1273,0.1277,0.1272,0.1309,0.1314,0.1354,0.131,0.1409,0.1413,0.1416,0.145,0.1457,0.1463,0,0,0,0,0,0.1072,0.1089,0.11,0.1109,0.115,0.118,0.1187,0.1216,0.1236,0.1256,0.1275,0.1278,0.1333,0.1311,0.1317,0.1359,0.1408,0.1412,0.1416,0.1447,0.1456,0.1463,0,0,0,0,0,0,0.1068,0.1096,0.1108,0.1135,0.1164,0.1188,0.1219,0.1237,0.127,0.1285,0.1289,0.1294,0.1345,0.1346,0.1322,0.1402,0.1376,0.1381,0.1398,0.1406,0.1412,0.1436,0.1312,0,0,0,0,0,0.1074,0.1089,0.1122,0.1142,0.1169,0.1202,0.1225,0.1244,0.127,0.1287,0.1306,0.1333,0.1361,0.1378,0.14,0.1436,0.1447,0.1471,0.1477,0.1482,0.1507,0.1548,0.156,0.143,0.143,0.143,0,0,0.1065,0.1094,0.1095,0.1143,0.1175,0.1209,0.1218,0.1264,0.1285,0.1288,0.1333,0.1359,0.1377,0.1418,0.1442,0.1425,0.1523,0.1487,0.1491,0.1514,0.1553,0.1566,0.1577,0.1432,0.1432,0.1432,0,0,0.1071,0.1101,0.1125,0.1155,0.1214,0.1235,0.1257,0.1301,0.1322,0.1361,0.1374,0.1426,0.1458,0.1482,0.1497,0.1556,0.1557,0.1567,0.1615,0.1654,0.1665,0.1675,0.1689,0.17,0.1566,0.1566,0.1566,0,0.1078,0.1109,0.1136,0.118,0.121,0.1252,0.1291,0.1312,0.1355,0.1391,0.1383,0.1474,0.1493,0.1551,0.1577,0.1573,0.1585,0.1579,0.1662,0.1672,0.1682,0.1694,0.1706,0.1569,0.1568,0.1568,0.1568,0,0.1088,0.1136,0.1162,0.1223,0.1253,0.1297,0.1331,0.1372,0.141,0.1446,0.1522,0.1537,0.16,0.1613,0.1616,0.1699,0.1682,0.1665,0.1639,0.1697,0.1706,0.1717,0.1572,0.1571,0.157,0.157,0,0,0.1064,0.1155,0.1168,0.1208,0.1286,0.1307,0.1361,0.1432,0.1481,0.1528,0.1588,0.1657,0.1696,0.1717,0.1724,0.1761,0.1835,0.1751,0.1752,0.176,0.191,0.1805,0.1807,0.1831,0.1833,0.1835,0.1883,0,0.1085,0.1159,0.1199,0.1266,0.1313,0.1367,0.1413,0.1476,0.1528,0.1589,0.1642,0.1711,0.172,0.1758,0.18,0.1831,0.1871,0.1824,0.186,0.1861,0.1756,0.1819,0.1844,0.1892,0.1894,0.1896,0.1897,0,0.1084,0.1144,0.1209,0.1308,0.1336,0.1383,0.1473,0.1515,0.1616,0.1665,0.1747,0.1783,0.187,0.1847,0.1943,0.1912,0.1935,0.1943,0.1944,0.1848,0.1778,0.1828,0.1918,0.1916,0.1915,0.1913,0.1912,0,0.1032,0.1147,0.1198,0.1226,0.1339,0.1394,0.1465,0.1565,0.1608,0.1725,0.1775,0.1869,0.1922,0.1967,0.201,0.199,0.2082,0.2045,0.1968,0.1959,0.202,0.2009,0.212,0.212,0.212,0.212,0.212,0,0.1016,0.1073,0.1189,0.1216,0.1297,0.1384,0.1468,0.1555,0.1659,0.1721,0.1821,0.186,0.1963,0.2014,0.2033,0.2038,0.2109,0.1999,0.1977,0.2031,0.2021,0.2027,0.2015,0.2122,0.2121,0.2121,0.2121,0,0.0942,0.1022,0.1087,0.1219,0.1273,0.1322,0.1467,0.1504,0.1647,0.1714,0.1761,0.189,0.1977,0.2037,0.2116,0.2065,0.2076,0.206,0.2118,0.2094,0.1917,0.1907,0.1972,0.1969,0.1967,0.1965,0.1963,0,0.0912,0.0937,0.1054,0.1073,0.1145,0.1244,0.13,0.1476,0.1527,0.1707,0.1726,0.1864,0.1933,0.1951,0.2035,0.2065,0.205,0.2032,0.1982,0.1937,0.1908,0.1902,0.1896,0.1959,0.1958,0.1957,0.1957,0,0.0848,0.0884,0.092,0.0976,0.1037,0.1096,0.1222,0.1263,0.1449,0.1571,0.1666,0.1726,0.1819,0.1888,0.194,0.195,0.2026,0.2004,0.2009,0.1962,0.1921,0.1894,0.1891,0.1948,0.1949,0.195,0.195,0,0.0782,0.0771,0.0814,0.0856,0.0912,0.0956,0.104,0.1145,0.125,0.1482,0.1501,0.1653,0.1791,0.1829,0.1862,0.1884,0.186,0.179,0.1806,0.1816,0.1747,0.1671,0.1621,0,0,0,0,0,0.0704,0.0681,0.0691,0.073,0.0777,0.085,0.0978,0.1069,0.1267,0.1291,0.1413,0.1497,0.159,0.167,0.1667,0.1792,0.1856,0.1779,0.1779,0.1898,0.1909,0.1844,0,0,0,0,0,0,0.0643,0.0645,0.0652,0.0638,0.0645,0.0723,0.0816,0.0946,0.1007,0.1192,0.1258,0.1393,0.151,0.1571,0.1629,0.1655,0.1624,0.1884,0.188,0.1892,0.1902,0.191,0.1847,0,0,0,0,0]},{"header":{"parameterUnit":"m.s-1","parameterCategory":2,"la1":30.2991,"la2":30.254,"lo1":-89.0895,"lo2":-89.0444,"dy":0.0017,"dx":0.0017,"nx":28,"ny":28,"refTime":"2025-09-04T21:00:00:Z","depth":"4","parameterNumber":3,"parameterNumberName":"V-component_of_CURRENTS"},"data":[0,0,0,0,0,0,0,0,0,0,0,0,0,0,0,0,0,0,0,0,0,0,0,0,0,0,0,0,0,0,0,0,0,0,0,0,0,0,0,0,0,0,0,0,0,0,0,0,0,0,0,0,0,0,0,0,0,0,0.0071,0.0071,0,0.0051,0.0051,0.0051,0.0038,0.0038,0.0038,0.0037,0.0013,0.0013,0.0012,0,0,0,0,0,0,0,0,0,0,0,0,0,0.0055,0.0056,0.0071,0.0071,0.007,0.0052,0.0051,0.0051,0.0038,0.0038,0.0038,0.0037,0.0013,0.0013,0.0012,0,0,0,0,0,0,0,0,0,0,0,0,0,0.0053,0.0056,0.0071,0.006,0.0059,0.0052,0.0051,0.0051,0.0038,0.0038,0.0037,0.0037,0.0014,0.0013,0.0012,0.0015,0,0,0.001,0.001,0,0,0,0,0,0,0,0,0.0053,0.0054,0.0062,0.0061,0.006,0.0046,0.0037,0.0038,0.0038,0.0048,0.0037,0.0037,0.0023,0.0022,0.0021,0.0014,0.0013,0.001,0.001,0.001,0.0009,0,0,0,0,0,0,0,0.0053,0.0054,0.0065,0.0062,0.006,0.0042,0.0042,0.0037,0.0038,0.0047,0.0045,0.0041,0.0022,0.0021,0.002,0.0013,0.001,0.001,0.0009,0.0009,0.0013,0.0013,0,0,0,0,0,0,0.0055,0.0055,0.0065,0.0064,0.0054,0.0043,0.0043,0.0052,0.0039,0.0036,0.0041,0.004,0.0023,0.0021,0.0019,0.0037,0.001,0.0009,0.0009,0.0012,0.0013,0.0013,0,0,0,0,0,0,0.0055,0.0057,0.0066,0.0057,0.0056,0.0043,0.0054,0.0051,0.0047,0.0034,0.0032,0.0039,0.0022,0.002,0.0025,0.0035,0.0009,0.0008,0.0012,0.0013,0.0013,0.0063,0,0,0,0,0,0,0.0055,0.0058,0.0062,0.0057,0.0057,0.0065,0.0054,0.0051,0.0044,0.0043,0.0031,0.0029,0.0022,0.0027,0.0025,0.0034,0.0008,0.0011,0.0012,0.0013,0.0061,0.0065,0.0069,0,0,0,0,0,0.0055,0.0064,0.0063,0.0064,0.0065,0.0065,0.0064,0.0053,0.0045,0.0047,0.0045,0.0029,0.0031,0.0027,0.0025,0.0034,0.0011,0.0012,0.0013,0.0059,0.0065,0.0069,0,0,0,0,0,0,0.0054,0.0064,0.0062,0.0072,0.007,0.0062,0.006,0.0053,0.0053,0.0051,0.004,0.0038,0.0045,0.0032,0.0028,0.0037,0.0016,0.0017,0.0052,0.0057,0.0061,0.0043,0.0007,0,0,0,0,0,0.0058,0.0072,0.0071,0.0078,0.0077,0.0069,0.0065,0.006,0.0059,0.0057,0.0052,0.0046,0.0049,0.0047,0.0045,0.0051,-0.0006,0.0053,0.0057,0.0061,0.0044,-0.0033,-0.0039,0.0017,0.0017,0.0017,0,0,0.006,0.0065,0.0074,0.0079,0.0075,0.0083,0.0066,0.0065,0.0075,0.0055,0.0067,0.0061,0.0054,0.0065,0.0066,0.0055,0.0018,0.0062,0.0066,0.0046,-0.0033,-0.0039,-0.0044,0.0018,0.0018,0.0018,0,0,0.0069,0.0076,0.0089,0.0093,0.009,0.0089,0.0089,0.0086,0.0087,0.0099,0.0089,0.0086,0.0091,0.0086,0.0085,0.0107,0.0044,0.011,0.0116,0.0042,0.0036,0.003,-0.0042,-0.0055,0.0111,0.0111,0.0111,0,0.0064,0.0085,0.0089,0.01,0.0103,0.0094,0.0104,0.011,0.011,0.0104,0.0108,0.0094,0.0098,0.0095,0.0114,0.0116,0.0058,0.0102,0.0045,0.0038,0.0031,-0.0042,-0.0057,0.0113,0.0113,0.0113,0.0113,0,0.0087,0.0098,0.0104,0.0122,0.0129,0.0133,0.0143,0.0146,0.0145,0.014,0.0132,0.0132,0.0113,0.0127,0.0135,0.0097,0.0067,0.006,0.003,0.0028,-0.0048,-0.0064,0.0117,0.0116,0.0115,0.0115,0,0,0.0076,0.0112,0.0112,0.0122,0.0139,0.0145,0.0164,0.0165,0.0159,0.016,0.0138,0.016,0.0133,0.0129,0.0127,0.008,0.0005,0.0055,0.005,-0.0022,-0.0173,-0.0103,-0.0115,-0.002,-0.0022,-0.0024,-0.0204,0,0.0082,0.0108,0.0127,0.015,0.0161,0.0168,0.0185,0.0187,0.0181,0.0161,0.0142,0.0128,0.0143,0.013,0.0086,0.0024,-0.0038,0.0053,-0.0157,-0.0164,-0.0107,-0.0132,-0.0033,-0.0216,-0.022,-0.0223,-0.0225,0,0.0088,0.0106,0.0133,0.0158,0.0163,0.0178,0.0181,0.0198,0.0174,0.0164,0.013,0.0104,0.0055,0.0061,-0.0077,-0.0024,-0.01,-0.0152,-0.0161,-0.013,-0.0125,-0.0217,-0.0256,-0.0253,-0.0251,-0.0249,-0.0247,0,0.007,0.0103,0.0125,0.0137,0.017,0.0176,0.019,0.0186,0.02,0.0151,0.0138,0.0058,0.0026,-0.0088,-0.0155,-0.0145,-0.0318,-0.0326,-0.0345,-0.0342,-0.0374,-0.0366,-0.0455,-0.0455,-0.0454,-0.0454,-0.0453,0,0.0065,0.0076,0.0118,0.0129,0.0155,0.0173,0.0187,0.0187,0.0179,0.0197,0.0135,0.0124,-0.0015,-0.0105,-0.0196,-0.0304,-0.0361,-0.0362,-0.0387,-0.0346,-0.0333,-0.0386,-0.0376,-0.046,-0.0459,-0.0458,-0.0456,0,0.0043,0.0067,0.0099,0.0137,0.015,0.0171,0.0213,0.0228,0.0211,0.0225,0.0211,0.0139,0.0027,-0.0099,-0.0283,-0.0336,-0.046,-0.0486,-0.0432,-0.0448,-0.0439,-0.0424,-0.0574,-0.0573,-0.0572,-0.0572,-0.0571,0,0.0036,0.005,0.0111,0.0154,0.0175,0.0209,0.0244,0.0244,0.0277,0.0261,0.0277,0.0165,0.0113,-0.0101,-0.0242,-0.0451,-0.0451,-0.054,-0.0494,-0.0444,-0.0455,-0.044,-0.0427,-0.057,-0.057,-0.0569,-0.0569,0,0.0036,0.0059,0.0105,0.0185,0.0233,0.029,0.0338,0.0351,0.0369,0.0345,0.0335,0.0228,0.0106,-0.0068,-0.0219,-0.0356,-0.05,-0.0533,-0.0536,-0.0494,-0.0441,-0.0449,-0.0436,-0.0567,-0.0567,-0.0567,-0.0567,0,0.0054,0.0091,0.0165,0.0237,0.0302,0.0369,0.0378,0.0422,0.0432,0.0415,0.0409,0.0275,0.0181,-0.0018,-0.015,-0.0284,-0.0325,-0.0371,-0.0383,-0.0388,-0.0253,-0.0154,-0.0229,0,0,0,0,0,0.0085,0.0143,0.0218,0.0305,0.0367,0.04,0.0458,0.0466,0.0458,0.047,0.0444,0.0345,0.0147,0.0049,-0.0076,-0.0154,-0.0361,-0.0305,-0.0422,-0.0552,-0.0555,-0.0419,0,0,0,0,0,0,0.012,0.019,0.023,0.0344,0.0403,0.0471,0.0501,0.0501,0.0508,0.0483,0.0379,0.0321,0.0121,0.0219,-0.0077,-0.012,-0.0208,-0.0406,-0.0408,-0.0551,-0.0553,-0.0556,-0.0416,0,0,0,0,0]}]]